Overview Statistics Trail Chart Weather Telemetry Raw packets
 

This is the latest recevied weather packets stored in our database for station/object K5BOU. If no packets are shown the sender has not sent any weather packets the latest 10 day(s).

<< 74 75 76 77 78 79 80 >>
Time Temp. Humidity Pressure Rain* Wind** Luminosity Snow
1788129644 35.56° C 57% 1011.2 hPa 0 mm - 291 W/m² -
1788129340 35.56° C 57% 1011.4 hPa 0 mm - 290 W/m² -
1788129040 35.56° C 57% 1011.3 hPa 0 mm - 267 W/m² -
1788128734 35° C 57% 1011.5 hPa 0 mm - 237 W/m² -
1788128430 35° C 57% 1011.6 hPa 0 mm - 225 W/m² -
1788128126 35° C 57% 1011.5 hPa 0 mm - 129 W/m² -
1788127822 35° C 56% 1011.5 hPa 0 mm - 128 W/m² -
1788127521 35.56° C 55% 1011.4 hPa 0 mm - 157 W/m² -
1788127220 35.56° C 55% 1011.3 hPa 0 mm - 200 W/m² -
1788126915 36.11° C 53% 1011.4 hPa 0 mm - 229 W/m² -
1788126609 36.67° C 52% 1011.4 hPa 0 mm - 338 W/m² -
1788126304 36.11° C 52% 1011.4 hPa 0 mm - 447 W/m² -
1788125998 36.67° C 54% 1011.6 hPa 0 mm - 448 W/m² -
1788125693 36.67° C 53% 1011.5 hPa 0 mm - 476 W/m² -
1788125389 36.11° C 52% 1011.5 hPa 0 mm - 489 W/m² -
1788125084 36.11° C 53% 1011.9 hPa 0 mm - 511 W/m² -
1788124784 36.11° C 51% 1011.9 hPa 0 mm - 520 W/m² -
1788124479 36.67° C 52% 1011.8 hPa 0 mm - 528 W/m² -
1788124174 36.67° C 51% 1012.2 hPa 0 mm - 541 W/m² -
1788123874 36.67° C 53% 1012.3 hPa 0 mm - 554 W/m² -
1788123572 36.67° C 54% 1012.1 hPa 0 mm - 563 W/m² -
1788123270 36.67° C 54% 1012.1 hPa 0 mm - 584 W/m² -
1788122966 36.67° C 51% 1012.2 hPa 0 mm - 582 W/m² -
1788122665 36.11° C 54% 1012.3 hPa 0 mm - 599 W/m² -
1788122360 36.67° C 53% 1012.4 hPa 0 mm - 339 W/m² -

* Rain latest hour (hover to see other rain measurements)
** Current wind speed in m/s (hover to see current wind gust speed)